Time,TemperatureF,DewpointF,PressureIn,WindDirection,WindDirectionDegrees,WindSpeedMPH,WindSpeedGustMPH,Humidity,HourlyPrecipIn,Conditions,Clouds,dailyrainin,SoftwareType,DateUTC
2013-05-10 00:03:00,61.9,55.0,29.86,NNW,330,0.0,1.0,78,0.00,OVC,OVC,0.00,WeatherDisplay:10.37,2013-05-10 04:03:00,
2013-05-10 00:08:00,61.8,54.8,29.86,North,349,0.0,4.0,78,0.00,OVC,OVC,0.00,WeatherDisplay:10.37,2013-05-10 04:08:00,
2013-05-10 00:13:00,61.5,55.0,29.86,NE,46,0.0,0.0,79,0.00,OVC,OVC,0.00,WeatherDisplay:10.37,2013-05-10 04:13:00,
2013-05-10 00:18:00,61.2,55.3,29.87,ENE,63,0.0,0.0,81,0.00,OVC,OVC,0.00,WeatherDisplay:10.37,2013-05-10 04:18:00,
2013-05-10 00:23:00,61.0,55.1,29.87,ENE,63,0.0,0.0,81,0.00,OVC,OVC,0.00,WeatherDisplay:10.37,2013-05-10 04:23:00,
2013-05-10 00:28:00,61.0,54.8,29.87,ENE,63,0.0,0.0,80,0.00,OVC,OVC,0.00,WeatherDisplay:10.37,2013-05-10 04:28:00,
2013-05-10 00:33:00,60.8,54.9,29.87,ENE,63,0.0,0.0,81,0.00,OVC,OVC,0.00,WeatherDisplay:10.37,2013-05-10 04:33:00,
2013-05-10 00:38:00,60.6,54.4,29.87,ENE,63,0.0,0.0,80,0.00,OVC,OVC,0.00,WeatherDisplay:10.37,2013-05-10 04:38:00,
2013-05-10 00:43:00,60.5,54.6,29.87,ENE,63,0.0,0.0,81,0.00,OVC,OVC,0.00,WeatherDisplay:10.37,2013-05-10 04:43:00,
2013-05-10 00:48:00,60.4,54.5,29.87,ENE,63,0.0,0.0,81,0.00,OVC,OVC,0.00,WeatherDisplay:10.37,2013-05-10 04:48:00,
2013-05-10 00:53:00,60.3,54.7,29.87,ENE,63,0.0,0.0,82,0.00,OVC,OVC,0.00,WeatherDisplay:10.37,2013-05-10 04:53:00,
2013-05-10 00:58:00,60.0,54.9,29.87,ENE,63,0.0,0.0,83,0.00,OVC,OVC,0.00,WeatherDisplay:10.37,2013-05-10 04:58:00,
2013-05-10 01:03:00,59.9,54.7,29.88,ENE,63,0.0,0.0,83,0.00,OVC,OVC,0.00,WeatherDisplay:10.37,2013-05-10 05:03:00,
2013-05-10 01:08:00,60.1,54.6,29.88,NE,43,0.0,0.0,82,0.00,OVC,OVC,0.00,WeatherDisplay:10.37,2013-05-10 05:08:00,
2013-05-10 01:13:00,60.2,54.0,29.87,NNE,30,0.0,0.0,80,0.00,OVC,OVC,0.00,WeatherDisplay:10.37,2013-05-10 05:13:00,
2013-05-10 01:18:00,60.4,54.2,29.87,NNE,30,0.0,0.0,80,0.00,OVC,OVC,0.00,WeatherDisplay:10.37,2013-05-10 05:18:00,
2013-05-10 01:23:00,60.3,54.1,29.87,NNE,30,0.0,0.0,80,0.00,OVC,OVC,0.00,WeatherDisplay:10.37,2013-05-10 05:23:00,
2013-05-10 01:28:00,60.4,53.8,29.87,NNE,30,0.0,0.0,79,0.00,OVC,OVC,0.00,WeatherDisplay:10.37,2013-05-10 05:28:00,
2013-05-10 01:33:00,60.3,53.4,29.88,NNE,30,0.0,0.0,78,0.00,OVC,OVC,0.00,WeatherDisplay:10.37,2013-05-10 05:33:00,
2013-05-10 01:38:00,60.3,53.8,29.88,NNE,30,0.0,0.0,79,0.00,OVC,OVC,0.00,WeatherDisplay:10.37,2013-05-10 05:38:00,
2013-05-10 01:43:00,60.1,53.9,29.88,NNE,30,0.0,0.0,80,0.00,OVC,OVC,0.00,WeatherDisplay:10.37,2013-05-10 05:43:00,
2013-05-10 01:48:00,60.0,53.8,29.88,NNE,30,0.0,0.0,80,0.00,OVC,OVC,0.00,WeatherDisplay:10.37,2013-05-10 05:48:00,
2013-05-10 01:53:00,59.7,53.8,29.88,NNE,30,0.0,0.0,81,0.00,OVC,OVC,0.00,WeatherDisplay:10.37,2013-05-10 05:53:00,
2013-05-10 01:58:00,59.5,53.3,29.88,NNE,30,0.0,0.0,80,0.00,OVC,OVC,0.00,WeatherDisplay:10.37,2013-05-10 05:58:00,
2013-05-10 02:03:00,59.3,53.8,29.88,NNE,30,0.0,0.0,82,0.00,OVC,OVC,0.00,WeatherDisplay:10.37,2013-05-10 06:03:00,
2013-05-10 02:08:00,59.1,53.6,29.88,NNE,30,0.0,0.0,82,0.00,OVC,OVC,0.00,WeatherDisplay:10.37,2013-05-10 06:08:00,
2013-05-10 02:13:00,58.8,53.3,29.88,NNE,30,0.0,0.0,82,0.00,OVC,OVC,0.00,WeatherDisplay:10.37,2013-05-10 06:13:00,
2013-05-10 02:18:00,58.5,53.4,29.88,NNE,30,0.0,0.0,83,0.00,OVC,OVC,0.00,WeatherDisplay:10.37,2013-05-10 06:18:00,
2013-05-10 02:23:00,58.2,53.7,29.88,NNE,30,0.0,0.0,85,0.00,OVC,OVC,0.00,WeatherDisplay:10.37,2013-05-10 06:23:00,
2013-05-10 02:28:00,58.0,53.5,29.88,NNE,30,0.0,0.0,85,0.00,OVC,OVC,0.00,WeatherDisplay:10.37,2013-05-10 06:28:00,
2013-05-10 02:33:00,57.6,53.5,29.88,NNE,30,0.0,0.0,86,0.00,OVC,OVC,0.00,WeatherDisplay:10.37,2013-05-10 06:33:00,
2013-05-10 02:38:00,57.4,53.3,29.88,NNE,30,0.0,0.0,86,0.00,OVC,OVC,0.00,WeatherDisplay:10.37,2013-05-10 06:38:00,
2013-05-10 02:43:00,57.2,53.3,29.88,NNE,30,0.0,0.0,87,0.00,OVC,OVC,0.00,WeatherDisplay:10.37,2013-05-10 06:43:00,
2013-05-10 02:48:00,56.7,53.2,29.88,NNE,30,0.0,0.0,88,0.00,OVC,OVC,0.00,WeatherDisplay:10.37,2013-05-10 06:48:00,
2013-05-10 02:53:00,56.4,52.9,29.88,NNE,30,0.0,0.0,88,0.00,OVC,OVC,0.00,WeatherDisplay:10.37,2013-05-10 06:53:00,
2013-05-10 02:58:00,56.1,52.9,29.88,NNE,30,0.0,0.0,89,0.00,OVC,OVC,0.00,WeatherDisplay:10.37,2013-05-10 06:58:00,
2013-05-10 03:03:00,55.8,52.6,29.89,NNE,30,0.0,0.0,89,0.00,OVC,OVC,0.00,WeatherDisplay:10.37,2013-05-10 07:03:00,
2013-05-10 03:08:00,55.8,52.6,29.89,NNE,30,0.0,0.0,89,0.00,OVC,OVC,0.00,WeatherDisplay:10.37,2013-05-10 07:08:00,
2013-05-10 03:13:00,55.9,52.4,29.89,North,11,0.0,2.0,88,0.00,BKN,OVC,0.00,WeatherDisplay:10.37,2013-05-10 07:13:00,
2013-05-10 03:18:00,56.1,52.3,29.89,NW,326,1.0,4.0,87,0.00,BKN,OVC,0.00,WeatherDisplay:10.37,2013-05-10 07:18:00,
2013-05-10 03:23:00,56.6,51.9,29.89,NNW,327,0.0,6.0,84,0.00,BKN,OVC,0.00,WeatherDisplay:10.37,2013-05-10 07:23:00,
2013-05-10 03:28:00,56.8,51.7,29.90,NW,326,0.0,3.0,83,0.00,BKN,OVC,0.00,WeatherDisplay:10.37,2013-05-10 07:28:00,
2013-05-10 03:33:00,56.6,51.8,29.90,NNW,329,0.0,2.0,84,0.00,BKN,OVC,0.00,WeatherDisplay:10.37,2013-05-10 07:33:00,
2013-05-10 03:38:00,56.5,51.4,29.90,NW,323,1.0,3.0,83,0.00,BKN,OVC,0.00,WeatherDisplay:10.37,2013-05-10 07:38:00,
2013-05-10 03:43:00,56.6,51.5,29.90,NW,310,1.0,4.0,83,0.00,BKN,OVC,0.00,WeatherDisplay:10.37,2013-05-10 07:43:00,
2013-05-10 03:48:00,56.6,51.4,29.90,NNW,334,2.0,8.0,83,0.00,BKN,OVC,0.00,WeatherDisplay:10.37,2013-05-10 07:48:00,
2013-05-10 03:53:00,56.4,51.0,29.91,North,349,0.0,5.0,82,0.00,BKN,OVC,0.00,WeatherDisplay:10.37,2013-05-10 07:53:00,
2013-05-10 03:58:00,56.1,50.3,29.91,NNW,334,3.0,8.0,81,0.00,BKN,OVC,0.00,WeatherDisplay:10.37,2013-05-10 07:58:00,
2013-05-10 04:03:00,55.9,49.8,29.91,North,352,1.0,4.0,80,0.00,BKN,OVC,0.00,WeatherDisplay:10.37,2013-05-10 08:03:00,
2013-05-10 04:13:00,55.2,48.5,29.91,North,349,1.0,8.0,78,0.00,SCT,OVC,0.00,WeatherDisplay:10.37,2013-05-10 08:13:00,
2013-05-10 04:18:00,54.8,48.1,29.91,North,356,0.0,5.0,78,0.00,SCT,OVC,0.00,WeatherDisplay:10.37,2013-05-10 08:18:00,
2013-05-10 04:23:00,54.3,47.6,29.91,North,1,1.0,4.0,78,0.00,SCT,OVC,0.00,WeatherDisplay:10.37,2013-05-10 08:23:00,
2013-05-10 04:28:00,54.0,47.3,29.91,NW,325,1.0,6.0,78,0.00,SCT,OVC,0.00,WeatherDisplay:10.37,2013-05-10 08:28:00,
2013-05-10 04:33:00,53.6,46.9,29.91,NNW,327,1.0,6.0,78,0.00,SCT,OVC,0.00,WeatherDisplay:10.37,2013-05-10 08:33:00,
2013-05-10 04:38:00,53.3,46.6,29.91,North,351,0.0,6.0,78,0.00,SCT,OVC,0.00,WeatherDisplay:10.37,2013-05-10 08:38:00,
2013-05-10 04:43:00,53.1,46.1,29.91,North,358,2.0,6.0,77,0.00,SCT,OVC,0.00,WeatherDisplay:10.37,2013-05-10 08:43:00,
2013-05-10 04:48:00,53.0,46.0,29.91,NNW,338,1.0,4.0,77,0.00,SCT,OVC,0.00,WeatherDisplay:10.37,2013-05-10 08:48:00,
2013-05-10 04:58:00,52.7,45.3,29.92,North,354,1.0,6.0,76,0.00,SCT,OVC,0.00,WeatherDisplay:10.37,2013-05-10 08:58:00,
2013-05-10 05:03:00,52.6,44.9,29.91,North,4,2.0,7.0,75,0.00,SCT,OVC,0.00,WeatherDisplay:10.37,2013-05-10 09:03:00,
2013-05-10 05:08:00,52.4,44.7,29.91,North,352,0.0,6.0,75,0.00,SCT,OVC,0.00,WeatherDisplay:10.37,2013-05-10 09:08:00,
2013-05-10 05:13:00,52.1,44.4,29.91,NNW,339,0.0,4.0,75,0.00,FEW,OVC,0.00,WeatherDisplay:10.37,2013-05-10 09:13:00,
2013-05-10 05:18:00,51.8,44.5,29.91,NW,325,0.0,3.0,76,0.00,FEW,OVC,0.00,WeatherDisplay:10.37,2013-05-10 09:18:00,
2013-05-10 05:23:00,51.6,44.3,29.92,NNW,348,1.0,6.0,76,0.00,FEW,OVC,0.00,WeatherDisplay:10.37,2013-05-10 09:23:00,
2013-05-10 05:28:00,51.5,44.2,29.92,North,350,0.0,6.0,76,0.00,FEW,OVC,0.00,WeatherDisplay:10.37,2013-05-10 09:28:00,
2013-05-10 05:33:00,51.3,44.0,29.92,NNW,344,0.0,2.0,76,0.00,FEW,OVC,0.00,WeatherDisplay:10.37,2013-05-10 09:33:00,
2013-05-10 05:43:00,50.7,43.7,29.92,NNE,26,0.0,1.0,77,0.00,FEW,OVC,0.00,WeatherDisplay:10.37,2013-05-10 09:43:00,
2013-05-10 05:48:00,50.6,43.3,29.92,North,7,0.0,4.0,76,0.00,FEW,OVC,0.00,WeatherDisplay:10.37,2013-05-10 09:48:00,
2013-05-10 05:53:00,50.5,43.6,29.92,NNW,345,0.0,3.0,77,0.00,FEW,OVC,0.00,WeatherDisplay:10.37,2013-05-10 09:53:00,
2013-05-10 05:58:00,50.4,43.8,29.93,North,355,0.0,0.0,78,0.00,FEW,OVC,0.00,WeatherDisplay:10.37,2013-05-10 09:58:00,
2013-05-10 06:03:00,50.2,43.3,29.93,North,356,0.0,0.0,77,0.00,FEW,OVC,0.00,WeatherDisplay:10.37,2013-05-10 10:03:00,
2013-05-10 06:08:00,50.2,43.3,29.93,North,355,0.0,0.0,77,0.00,FEW,OVC,0.00,WeatherDisplay:10.37,2013-05-10 10:08:00,
2013-05-10 06:13:00,50.1,43.5,29.93,North,355,0.0,0.0,78,0.00,SCT,OVC,0.00,WeatherDisplay:10.37,2013-05-10 10:13:00,
2013-05-10 06:18:00,50.3,43.3,29.94,North,355,0.0,0.0,77,0.00,SCT,OVC,0.00,WeatherDisplay:10.37,2013-05-10 10:18:00,
2013-05-10 06:23:00,50.3,44.1,29.94,NE,48,0.0,0.0,79,0.00,SCT,OVC,0.00,WeatherDisplay:10.37,2013-05-10 10:23:00,
2013-05-10 06:28:00,50.5,43.6,29.94,ENE,62,0.0,0.0,77,0.00,SCT,OVC,0.00,WeatherDisplay:10.37,2013-05-10 10:28:00,
2013-05-10 06:33:00,50.6,43.7,29.94,North,9,0.0,0.0,77,0.00,SCT,OVC,0.00,WeatherDisplay:10.37,2013-05-10 10:33:00,
2013-05-10 06:38:00,50.8,43.2,29.94,NNE,22,0.0,0.0,75,0.00,SCT,OVC,0.00,WeatherDisplay:10.37,2013-05-10 10:38:00,
2013-05-10 06:43:00,51.2,43.5,29.94,NE,53,0.0,0.0,75,0.00,SCT,OVC,0.00,WeatherDisplay:10.37,2013-05-10 10:43:00,
2013-05-10 06:48:00,51.2,42.8,29.95,NE,53,0.0,0.0,73,0.00,SCT,OVC,0.00,WeatherDisplay:10.37,2013-05-10 10:48:00,
2013-05-10 06:53:00,51.4,43.7,29.95,NE,44,0.0,2.0,75,0.00,SCT,OVC,0.00,WeatherDisplay:10.37,2013-05-10 10:53:00,
2013-05-10 06:58:00,51.4,43.0,29.95,NNE,32,0.0,1.0,73,0.00,SCT,OVC,0.00,WeatherDisplay:10.37,2013-05-10 10:58:00,
2013-05-10 07:03:00,51.3,42.6,29.96,ENE,58,0.0,2.0,72,0.00,SCT,OVC,0.00,WeatherDisplay:10.37,2013-05-10 11:03:00,
2013-05-10 07:08:00,50.9,42.6,29.96,NNE,29,0.0,1.0,73,0.00,SCT,OVC,0.00,WeatherDisplay:10.37,2013-05-10 11:08:00,
2013-05-10 07:13:00,50.6,42.6,29.97,NE,44,0.0,1.0,74,0.00,BKN,OVC,0.00,WeatherDisplay:10.37,2013-05-10 11:13:00,
2013-05-10 07:18:00,50.4,42.4,29.97,NE,36,0.0,2.0,74,0.00,BKN,OVC,0.00,WeatherDisplay:10.37,2013-05-10 11:18:00,
2013-05-10 07:23:00,50.2,42.2,29.97,East,83,0.0,2.0,74,0.00,BKN,OVC,0.00,WeatherDisplay:10.37,2013-05-10 11:23:00,
2013-05-10 07:33:00,50.4,42.4,29.97,East,99,0.0,0.0,74,0.00,BKN,OVC,0.00,WeatherDisplay:10.37,2013-05-10 11:33:00,
2013-05-10 07:38:00,50.9,42.2,29.97,East,93,0.0,2.0,72,0.00,BKN,OVC,0.00,WeatherDisplay:10.37,2013-05-10 11:38:00,
2013-05-10 07:43:00,51.6,42.9,29.97,NE,35,0.0,1.0,72,0.00,BKN,OVC,0.00,WeatherDisplay:10.37,2013-05-10 11:43:00,
2013-05-10 07:48:00,52.1,42.2,29.97,North,11,0.0,5.0,69,0.00,BKN,OVC,0.00,WeatherDisplay:10.37,2013-05-10 11:48:00,
2013-05-10 07:53:00,52.4,42.2,29.97,NNE,26,0.0,5.0,68,0.00,BKN,OVC,0.00,WeatherDisplay:10.37,2013-05-10 11:53:00,
2013-05-10 07:58:00,52.7,42.5,29.97,North,9,1.0,5.0,68,0.00,BKN,OVC,0.00,WeatherDisplay:10.37,2013-05-10 11:58:00,
2013-05-10 08:08:00,53.3,42.6,29.97,North,4,0.0,1.0,67,0.00,BKN,OVC,0.00,WeatherDisplay:10.37,2013-05-10 12:08:00,
2013-05-10 08:13:00,53.7,42.6,29.97,NNW,343,0.0,5.0,66,0.00,SCT,OVC,0.00,WeatherDisplay:10.37,2013-05-10 12:13:00,
2013-05-10 08:18:00,53.8,42.3,29.98,NNW,331,1.0,4.0,65,0.00,SCT,OVC,0.00,WeatherDisplay:10.37,2013-05-10 12:18:00,
2013-05-10 08:23:00,54.2,43.1,29.98,NNW,327,0.0,3.0,66,0.00,SCT,OVC,0.00,WeatherDisplay:10.37,2013-05-10 12:23:00,
2013-05-10 08:28:00,54.1,42.6,29.98,NNW,347,1.0,3.0,65,0.00,SCT,OVC,0.00,WeatherDisplay:10.37,2013-05-10 12:28:00,
2013-05-10 08:33:00,54.6,43.5,29.98,North,354,0.0,1.0,66,0.00,SCT,OVC,0.00,WeatherDisplay:10.37,2013-05-10 12:33:00,
2013-05-10 08:38:00,55.2,43.2,29.98,North,358,0.0,2.0,64,0.00,SCT,OVC,0.00,WeatherDisplay:10.37,2013-05-10 12:38:00,
2013-05-10 08:43:00,55.4,43.0,29.98,NNW,331,0.0,3.0,63,0.00,SCT,OVC,0.00,WeatherDisplay:10.37,2013-05-10 12:43:00,
2013-05-10 08:48:00,55.6,43.2,29.98,North,349,0.0,3.0,63,0.00,SCT,OVC,0.00,WeatherDisplay:10.37,2013-05-10 12:48:00,
2013-05-10 08:53:00,56.0,43.1,29.98,East,79,0.0,6.0,62,0.00,SCT,OVC,0.00,WeatherDisplay:10.37,2013-05-10 12:53:00,
2013-05-10 08:58:00,55.9,43.0,29.97,NNE,33,0.0,1.0,62,0.00,SCT,OVC,0.00,WeatherDisplay:10.37,2013-05-10 12:58:00,
2013-05-10 09:03:00,56.8,43.5,29.97,North,352,0.0,3.0,61,0.00,SCT,OVC,0.00,WeatherDisplay:10.37,2013-05-10 13:03:00,
2013-05-10 09:08:00,56.8,43.0,29.97,North,1,0.0,2.0,60,0.00,SCT,OVC,0.00,WeatherDisplay:10.37,2013-05-10 13:08:00,
2013-05-10 09:13:00,57.2,42.5,29.98,NE,47,0.0,2.0,58,0.00,BKN,OVC,0.00,WeatherDisplay:10.37,2013-05-10 13:13:00,
2013-05-10 09:18:00,56.7,43.8,29.98,East,98,0.0,0.0,62,0.00,BKN,OVC,0.00,WeatherDisplay:10.37,2013-05-10 13:18:00,
2013-05-10 09:23:00,57.1,43.7,29.98,East,91,0.0,4.0,61,0.00,BKN,OVC,0.00,WeatherDisplay:10.37,2013-05-10 13:23:00,
2013-05-10 09:28:00,56.6,42.5,29.98,ENE,61,0.0,1.0,59,0.00,BKN,OVC,0.00,WeatherDisplay:10.37,2013-05-10 13:28:00,
2013-05-10 09:33:00,56.4,42.7,29.98,NE,39,1.0,5.0,60,0.00,BKN,OVC,0.00,WeatherDisplay:10.37,2013-05-10 13:33:00,
2013-05-10 09:38:00,57.5,43.7,29.97,East,100,0.0,4.0,60,0.00,BKN,OVC,0.00,WeatherDisplay:10.37,2013-05-10 13:38:00,
2013-05-10 09:48:00,58.6,43.9,29.97,SE,124,0.0,3.0,58,0.00,BKN,OVC,0.00,WeatherDisplay:10.37,2013-05-10 13:48:00,
2013-05-10 09:53:00,58.4,43.6,29.97,East,101,0.0,3.0,58,0.00,BKN,OVC,0.00,WeatherDisplay:10.37,2013-05-10 13:53:00,
2013-05-10 09:58:00,59.1,43.4,29.97,East,101,0.0,3.0,56,0.00,BKN,OVC,0.00,WeatherDisplay:10.37,2013-05-10 13:58:00,
2013-05-10 10:03:00,58.5,42.9,29.98,East,100,0.0,2.0,56,0.00,BKN,OVC,0.00,WeatherDisplay:10.37,2013-05-10 14:03:00,
2013-05-10 10:08:00,58.3,42.2,29.98,East,82,1.0,6.0,55,0.00,BKN,OVC,0.00,WeatherDisplay:10.37,2013-05-10 14:08:00,
2013-05-10 10:13:00,59.1,45.2,29.98,ENE,67,0.0,3.0,60,0.00,BKN,OVC,0.00,WeatherDisplay:10.37,2013-05-10 14:13:00,
2013-05-10 10:18:00,59.1,42.0,29.98,ESE,108,1.0,5.0,53,0.00,BKN,OVC,0.00,WeatherDisplay:10.37,2013-05-10 14:18:00,
2013-05-10 10:23:00,59.1,43.4,29.98,SE,124,0.0,2.0,56,0.00,OVC,OVC,0.00,WeatherDisplay:10.37,2013-05-10 14:23:00,
2013-05-10 10:28:00,59.0,43.8,29.98,ESE,104,0.0,0.0,57,0.00,OVC,OVC,0.00,WeatherDisplay:10.37,2013-05-10 14:28:00,
2013-05-10 10:33:00,59.2,42.6,29.98,ESE,102,0.0,5.0,54,0.00,OVC,OVC,0.00,WeatherDisplay:10.37,2013-05-10 14:33:00,
2013-05-10 10:38:00,58.9,42.3,29.98,East,94,0.0,3.0,54,0.00,OVC,OVC,0.00,WeatherDisplay:10.37,2013-05-10 14:38:00,
2013-05-10 10:43:00,58.8,42.7,29.99,ENE,74,0.0,2.0,55,0.00,OVC,OVC,0.00,WeatherDisplay:10.37,2013-05-10 14:43:00,
2013-05-10 10:48:00,59.0,43.3,29.99,ENE,76,0.0,0.0,56,0.00,OVC,OVC,0.00,WeatherDisplay:10.37,2013-05-10 14:48:00,
2013-05-10 10:53:00,58.9,42.3,29.99,NE,36,0.0,2.0,54,0.00,OVC,OVC,0.00,WeatherDisplay:10.37,2013-05-10 14:53:00,
2013-05-10 10:58:00,58.8,42.2,29.99,NNW,341,0.0,3.0,54,0.00,OVC,OVC,0.00,WeatherDisplay:10.37,2013-05-10 14:58:00,
2013-05-10 11:03:00,58.9,43.2,29.99,NE,55,0.0,2.0,56,0.00,OVC,OVC,0.00,WeatherDisplay:10.37,2013-05-10 15:03:00,
2013-05-10 11:08:00,59.2,43.5,29.99,NNE,30,0.0,1.0,56,0.00,OVC,OVC,0.00,WeatherDisplay:10.37,2013-05-10 15:08:00,
2013-05-10 11:13:00,59.9,42.7,29.98,NE,52,0.0,3.0,53,0.00,OVC,OVC,0.00,WeatherDisplay:10.37,2013-05-10 15:13:00,
2013-05-10 11:18:00,59.8,43.1,29.98,East,79,0.0,3.0,54,0.00,OVC,OVC,0.00,WeatherDisplay:10.37,2013-05-10 15:18:00,
2013-05-10 11:23:00,59.7,43.5,29.98,ENE,70,0.0,3.0,55,0.00,OVC,OVC,0.00,WeatherDisplay:10.37,2013-05-10 15:23:00,
2013-05-10 11:28:00,59.9,42.7,29.97,ENE,64,0.0,5.0,53,0.00,OVC,OVC,0.00,WeatherDisplay:10.37,2013-05-10 15:28:00,
2013-05-10 11:33:00,60.4,43.2,29.98,ENE,69,0.0,5.0,53,0.00,OVC,OVC,0.00,WeatherDisplay:10.37,2013-05-10 15:33:00,
2013-05-10 11:38:00,60.8,43.1,29.98,East,89,1.0,3.0,52,0.00,OVC,OVC,0.00,WeatherDisplay:10.37,2013-05-10 15:38:00,
2013-05-10 11:43:00,60.3,43.6,29.97,ENE,78,0.0,3.0,54,0.00,OVC,OVC,0.00,WeatherDisplay:10.37,2013-05-10 15:43:00,
2013-05-10 11:48:00,60.9,44.7,29.97,East,83,0.0,5.0,55,0.00,OVC,OVC,0.00,WeatherDisplay:10.37,2013-05-10 15:48:00,
2013-05-10 11:53:00,61.4,43.6,29.97,ESE,107,1.0,6.0,52,0.00,OVC,OVC,0.00,WeatherDisplay:10.37,2013-05-10 15:53:00,
2013-05-10 11:58:00,61.1,43.9,29.97,ESE,102,0.0,3.0,53,0.00,OVC,OVC,0.00,WeatherDisplay:10.37,2013-05-10 15:58:00,
2013-05-10 12:03:00,61.6,43.3,29.97,SSE,163,0.0,0.0,51,0.00,OVC,OVC,0.00,WeatherDisplay:10.37,2013-05-10 16:03:00,
2013-05-10 12:08:00,61.1,43.8,29.97,SE,135,0.0,0.0,53,0.00,OVC,OVC,0.00,WeatherDisplay:10.37,2013-05-10 16:08:00,
2013-05-10 12:13:00,61.2,44.9,29.96,ESE,103,1.0,4.0,55,0.00,OVC,OVC,0.00,WeatherDisplay:10.37,2013-05-10 16:13:00,
2013-05-10 12:18:00,61.5,44.2,29.96,ENE,57,0.0,3.0,53,0.00,OVC,OVC,0.00,WeatherDisplay:10.37,2013-05-10 16:18:00,
2013-05-10 12:23:00,61.5,43.7,29.96,ENE,58,0.0,3.0,52,0.00,OVC,OVC,0.00,WeatherDisplay:10.37,2013-05-10 16:23:00,
2013-05-10 12:28:00,62.1,43.8,29.96,ESE,102,0.0,3.0,51,0.00,OVC,OVC,0.00,WeatherDisplay:10.37,2013-05-10 16:28:00,
2013-05-10 12:33:00,63.6,45.1,29.95,ESE,110,0.0,7.0,51,0.00,OVC,OVC,0.00,WeatherDisplay:10.37,2013-05-10 16:33:00,
2013-05-10 12:38:00,63.0,43.5,29.96,ESE,106,0.0,7.0,49,0.00,OVC,OVC,0.00,WeatherDisplay:10.37,2013-05-10 16:38:00,
2013-05-10 12:43:00,63.4,44.4,29.95,NNE,22,0.0,3.0,50,0.00,OVC,OVC,0.00,WeatherDisplay:10.37,2013-05-10 16:43:00,
2013-05-10 12:48:00,63.7,44.2,29.95,NNE,20,0.0,2.0,49,0.00,OVC,OVC,0.00,WeatherDisplay:10.37,2013-05-10 16:48:00,
2013-05-10 12:53:00,64.4,44.8,29.95,NE,38,0.0,3.0,49,0.00,OVC,OVC,0.00,WeatherDisplay:10.37,2013-05-10 16:53:00,
2013-05-10 12:58:00,64.8,45.7,29.95,NE,43,0.0,5.0,50,0.00,OVC,OVC,0.00,WeatherDisplay:10.37,2013-05-10 16:58:00,
2013-05-10 13:03:00,64.2,44.1,29.95,NE,55,0.0,4.0,48,0.00,OVC,OVC,0.00,WeatherDisplay:10.37,2013-05-10 17:03:00,
2013-05-10 13:08:00,65.0,45.9,29.95,East,90,0.0,2.0,50,0.00,OVC,OVC,0.00,WeatherDisplay:10.37,2013-05-10 17:08:00,
2013-05-10 13:13:00,64.9,45.3,29.95,ESE,107,1.0,5.0,49,0.00,OVC,OVC,0.00,WeatherDisplay:10.37,2013-05-10 17:13:00,
2013-05-10 13:18:00,64.0,43.9,29.95,East,88,1.0,4.0,48,0.00,OVC,OVC,0.00,WeatherDisplay:10.37,2013-05-10 17:18:00,
2013-05-10 13:23:00,63.6,44.6,29.95,East,83,0.0,5.0,50,0.00,OVC,OVC,0.00,WeatherDisplay:10.37,2013-05-10 17:23:00,
2013-05-10 13:28:00,64.2,45.2,29.95,East,80,0.0,1.0,50,0.00,OVC,OVC,0.00,WeatherDisplay:10.37,2013-05-10 17:28:00,
2013-05-10 13:33:00,64.8,45.7,29.95,ENE,61,0.0,3.0,50,0.00,OVC,OVC,0.00,WeatherDisplay:10.37,2013-05-10 17:33:00,
2013-05-10 13:38:00,64.6,45.0,29.94,ENE,65,1.0,4.0,49,0.00,OVC,OVC,0.00,WeatherDisplay:10.37,2013-05-10 17:38:00,
2013-05-10 13:43:00,64.6,46.0,29.94,East,80,1.0,4.0,51,0.00,OVC,OVC,0.00,WeatherDisplay:10.37,2013-05-10 17:43:00,
2013-05-10 13:48:00,64.6,45.5,29.94,ENE,78,0.0,4.0,50,0.00,OVC,OVC,0.00,WeatherDisplay:10.37,2013-05-10 17:48:00,
2013-05-10 13:53:00,65.0,45.9,29.94,East,94,0.0,1.0,50,0.00,OVC,OVC,0.00,WeatherDisplay:10.37,2013-05-10 17:53:00,
2013-05-10 13:58:00,65.7,46.6,29.94,East,95,0.0,4.0,50,0.00,OVC,OVC,0.00,WeatherDisplay:10.37,2013-05-10 17:58:00,
2013-05-10 14:03:00,65.7,46.5,29.94,East,87,1.0,4.0,50,0.00,OVC,OVC,0.00,WeatherDisplay:10.37,2013-05-10 18:03:00,
2013-05-10 14:08:00,64.8,46.3,29.94,NE,46,0.0,4.0,51,0.00,OVC,OVC,0.00,WeatherDisplay:10.37,2013-05-10 18:08:00,
2013-05-10 14:13:00,65.0,47.4,29.94,East,87,0.0,2.0,53,0.00,OVC,OVC,0.00,WeatherDisplay:10.37,2013-05-10 18:13:00,
2013-05-10 14:18:00,65.0,45.9,29.94,SE,135,0.0,1.0,50,0.00,OVC,OVC,0.00,WeatherDisplay:10.37,2013-05-10 18:18:00,
2013-05-10 14:23:00,64.8,46.7,29.94,ESE,122,0.0,2.0,52,0.00,OVC,OVC,0.00,WeatherDisplay:10.37,2013-05-10 18:23:00,
2013-05-10 14:28:00,64.7,45.6,29.94,East,100,0.0,1.0,50,0.00,OVC,OVC,0.00,WeatherDisplay:10.37,2013-05-10 18:28:00,
2013-05-10 14:33:00,64.9,45.8,29.94,ESE,109,0.0,0.0,50,0.00,OVC,OVC,0.00,WeatherDisplay:10.37,2013-05-10 18:33:00,
2013-05-10 14:38:00,64.6,46.1,29.94,ESE,106,0.0,1.0,51,0.00,OVC,OVC,0.00,WeatherDisplay:10.37,2013-05-10 18:38:00,
2013-05-10 14:43:00,64.6,46.5,29.93,ESE,111,0.0,1.0,52,0.00,OVC,OVC,0.00,WeatherDisplay:10.37,2013-05-10 18:43:00,
2013-05-10 14:48:00,64.4,45.9,29.93,ESE,110,0.0,2.0,51,0.00,OVC,OVC,0.00,WeatherDisplay:10.37,2013-05-10 18:48:00,
2013-05-10 14:58:00,64.3,46.3,29.93,SE,125,0.0,1.0,52,0.00,OVC,OVC,0.00,WeatherDisplay:10.37,2013-05-10 18:58:00,
2013-05-10 15:03:00,64.2,45.7,29.93,ESE,110,0.0,3.0,51,0.00,OVC,OVC,0.00,WeatherDisplay:10.37,2013-05-10 19:03:00,
2013-05-10 15:08:00,64.4,45.9,29.92,SE,132,0.0,1.0,51,0.00,OVC,OVC,0.00,WeatherDisplay:10.37,2013-05-10 19:08:00,
2013-05-10 15:13:00,64.3,45.8,29.92,SE,128,0.0,0.0,51,0.00,OVC,OVC,0.00,WeatherDisplay:10.37,2013-05-10 19:13:00,
2013-05-10 15:18:00,64.2,46.2,29.92,ESE,111,0.0,2.0,52,0.00,OVC,OVC,0.00,WeatherDisplay:10.37,2013-05-10 19:18:00,
2013-05-10 15:23:00,64.2,46.2,29.92,East,99,0.0,0.0,52,0.00,OVC,OVC,0.00,WeatherDisplay:10.37,2013-05-10 19:23:00,
2013-05-10 15:28:00,64.1,46.1,29.92,NE,44,0.0,1.0,52,0.00,OVC,OVC,0.00,WeatherDisplay:10.37,2013-05-10 19:28:00,
2013-05-10 15:33:00,64.0,46.0,29.92,NNE,27,0.0,3.0,52,0.00,OVC,OVC,0.00,WeatherDisplay:10.37,2013-05-10 19:33:00,
2013-05-10 15:38:00,64.0,46.0,29.91,NE,41,0.0,4.0,52,0.00,OVC,OVC,0.00,WeatherDisplay:10.37,2013-05-10 19:38:00,
2013-05-10 15:43:00,64.2,47.2,29.91,NE,42,0.0,1.0,54,0.00,OVC,OVC,0.00,WeatherDisplay:10.37,2013-05-10 19:43:00,
2013-05-10 15:48:00,64.2,46.2,29.91,ENE,75,0.0,4.0,52,0.00,OVC,OVC,0.00,WeatherDisplay:10.37,2013-05-10 19:48:00,
2013-05-10 15:53:00,64.3,46.8,29.91,East,95,0.0,0.0,53,0.00,OVC,OVC,0.00,WeatherDisplay:10.37,2013-05-10 19:53:00,
2013-05-10 15:58:00,64.3,46.3,29.91,East,89,0.0,0.0,52,0.00,OVC,OVC,0.00,WeatherDisplay:10.37,2013-05-10 19:58:00,
2013-05-10 16:03:00,64.3,47.3,29.90,East,98,0.0,3.0,54,0.00,OVC,OVC,0.00,WeatherDisplay:10.37,2013-05-10 20:03:00,
2013-05-10 16:08:00,64.2,46.7,29.90,East,89,0.0,3.0,53,0.00,OVC,OVC,0.00,WeatherDisplay:10.37,2013-05-10 20:08:00,
2013-05-10 16:13:00,64.2,47.2,29.90,East,93,0.0,1.0,54,0.00,OVC,OVC,0.00,WeatherDisplay:10.37,2013-05-10 20:13:00,
2013-05-10 16:18:00,64.2,47.2,29.90,East,93,0.0,3.0,54,0.00,OVC,OVC,0.00,WeatherDisplay:10.37,2013-05-10 20:18:00,
2013-05-10 16:28:00,63.9,46.4,29.89,NE,53,0.0,3.0,53,0.00,OVC,OVC,0.00,WeatherDisplay:10.37,2013-05-10 20:28:00,
2013-05-10 16:33:00,63.8,46.3,29.89,ENE,65,0.0,5.0,53,0.00,OVC,OVC,0.00,WeatherDisplay:10.37,2013-05-10 20:33:00,
2013-05-10 16:38:00,63.7,46.7,29.89,ENE,57,0.0,2.0,54,0.00,OVC,OVC,0.00,WeatherDisplay:10.37,2013-05-10 20:38:00,
2013-05-10 16:43:00,63.7,46.2,29.89,ENE,70,1.0,4.0,53,0.00,OVC,OVC,0.00,WeatherDisplay:10.37,2013-05-10 20:43:00,
2013-05-10 16:48:00,63.7,47.2,29.89,ESE,108,0.0,7.0,55,0.00,OVC,OVC,0.00,WeatherDisplay:10.37,2013-05-10 20:48:00,
2013-05-10 16:53:00,63.8,46.4,29.89,East,93,0.0,2.0,53,0.00,OVC,OVC,0.00,WeatherDisplay:10.37,2013-05-10 20:53:00,
2013-05-10 16:58:00,63.9,47.0,29.89,ENE,65,0.0,7.0,54,0.00,OVC,OVC,0.00,WeatherDisplay:10.37,2013-05-10 20:58:00,
2013-05-10 17:03:00,63.8,45.8,29.88,ENE,69,1.0,5.0,52,0.00,OVC,OVC,0.00,WeatherDisplay:10.37,2013-05-10 21:03:00,
2013-05-10 17:08:00,63.7,46.7,29.88,ENE,66,0.0,5.0,54,0.00,OVC,OVC,0.00,WeatherDisplay:10.37,2013-05-10 21:08:00,
2013-05-10 17:18:00,63.5,46.1,29.88,ENE,63,0.0,2.0,53,0.00,OVC,OVC,0.00,WeatherDisplay:10.37,2013-05-10 21:18:00,
2013-05-10 17:23:00,63.5,46.1,29.87,ENE,66,1.0,7.0,53,0.00,OVC,OVC,0.00,WeatherDisplay:10.37,2013-05-10 21:23:00,
2013-05-10 17:28:00,63.4,46.0,29.87,ENE,69,0.0,5.0,53,0.00,OVC,OVC,0.00,WeatherDisplay:10.37,2013-05-10 21:28:00,
2013-05-10 17:33:00,63.3,47.3,29.87,East,89,0.0,0.0,56,0.00,OVC,OVC,0.00,WeatherDisplay:10.37,2013-05-10 21:33:00,
2013-05-10 17:38:00,63.1,47.1,29.87,East,94,0.0,3.0,56,0.00,OVC,OVC,0.00,WeatherDisplay:10.37,2013-05-10 21:38:00,
2013-05-10 17:43:00,63.0,48.0,29.86,East,84,1.0,4.0,58,0.00,OVC,OVC,0.00,WeatherDisplay:10.37,2013-05-10 21:43:00,
2013-05-10 17:48:00,63.2,47.2,29.86,NE,52,1.0,7.0,56,0.00,OVC,OVC,0.00,WeatherDisplay:10.37,2013-05-10 21:48:00,
2013-05-10 17:53:00,63.3,46.9,29.85,NE,43,1.0,9.0,55,0.00,OVC,OVC,0.00,WeatherDisplay:10.37,2013-05-10 21:53:00,
2013-05-10 17:58:00,63.2,47.2,29.85,ENE,57,0.0,7.0,56,0.00,OVC,OVC,0.00,WeatherDisplay:10.37,2013-05-10 21:58:00,
2013-05-10 18:03:00,63.2,46.8,29.86,ESE,120,1.0,5.0,55,0.00,OVC,OVC,0.00,WeatherDisplay:10.37,2013-05-10 22:03:00,
2013-05-10 18:08:00,63.1,46.2,29.85,NE,56,1.0,5.0,54,0.00,OVC,OVC,0.00,WeatherDisplay:10.37,2013-05-10 22:08:00,
2013-05-10 18:13:00,63.0,46.6,29.86,ENE,72,2.0,9.0,55,0.00,BKN,OVC,0.00,WeatherDisplay:10.37,2013-05-10 22:13:00,
2013-05-10 18:18:00,62.9,46.5,29.85,NE,49,0.0,10.0,55,0.00,BKN,OVC,0.00,WeatherDisplay:10.37,2013-05-10 22:18:00,
2013-05-10 18:23:00,62.6,45.7,29.85,NE,48,1.0,6.0,54,0.00,BKN,OVC,0.00,WeatherDisplay:10.37,2013-05-10 22:23:00,
2013-05-10 18:28:00,62.5,45.6,29.85,NE,55,1.0,7.0,54,0.00,BKN,OVC,0.00,WeatherDisplay:10.37,2013-05-10 22:28:00,
2013-05-10 18:33:00,62.3,46.4,29.85,ENE,64,2.0,8.0,56,0.00,BKN,OVC,0.00,WeatherDisplay:10.37,2013-05-10 22:33:00,
2013-05-10 18:38:00,62.0,45.6,29.86,ENE,75,1.0,5.0,55,0.00,BKN,OVC,0.00,WeatherDisplay:10.37,2013-05-10 22:38:00,
2013-05-10 18:43:00,62.0,45.6,29.86,East,83,1.0,5.0,55,0.00,BKN,OVC,0.00,WeatherDisplay:10.37,2013-05-10 22:43:00,
2013-05-10 18:48:00,61.7,46.8,29.85,ENE,72,1.0,8.0,58,0.00,BKN,OVC,0.00,WeatherDisplay:10.37,2013-05-10 22:48:00,
2013-05-10 18:53:00,61.0,47.0,29.85,ENE,78,0.0,3.0,60,0.00,BKN,OVC,0.00,WeatherDisplay:10.37,2013-05-10 22:53:00,
2013-05-10 18:58:00,60.1,48.3,29.85,ENE,73,0.0,5.0,65,0.00,BKN,OVC,0.00,WeatherDisplay:10.37,2013-05-10 22:58:00,
2013-05-10 19:03:00,58.9,49.5,29.86,ENE,60,0.0,7.0,71,0.00,-RA,OVC,0.00,WeatherDisplay:10.37,2013-05-10 23:03:00,
2013-05-10 19:08:00,57.7,49.8,29.85,East,85,0.0,4.0,75,0.01,-RA,OVC,0.01,WeatherDisplay:10.37,2013-05-10 23:08:00,
2013-05-10 19:13:00,56.8,50.3,29.85,ENE,65,0.0,0.0,79,0.00,-RA,OVC,0.01,WeatherDisplay:10.37,2013-05-10 23:13:00,
2013-05-10 19:18:00,55.8,50.1,29.85,NE,55,0.0,1.0,81,0.00,-RA,OVC,0.01,WeatherDisplay:10.37,2013-05-10 23:18:00,
2013-05-10 19:23:00,55.2,50.8,29.86,NE,44,0.0,4.0,85,0.01,-RA,OVC,0.02,WeatherDisplay:10.37,2013-05-10 23:23:00,
2013-05-10 19:28:00,54.7,50.9,29.85,NE,39,0.0,0.0,87,0.00,-RA,OVC,0.02,WeatherDisplay:10.37,2013-05-10 23:28:00,
2013-05-10 19:33:00,54.3,50.5,29.85,NE,37,0.0,3.0,87,0.00,-RA,OVC,0.02,WeatherDisplay:10.37,2013-05-10 23:33:00,
2013-05-10 19:38:00,54.0,50.6,29.85,NE,36,0.0,5.0,88,0.01,-RA,OVC,0.02,WeatherDisplay:10.37,2013-05-10 23:38:00,
2013-05-10 19:43:00,53.9,50.1,29.84,NE,48,0.0,3.0,87,0.00,-RA,OVC,0.02,WeatherDisplay:10.37,2013-05-10 23:43:00,
2013-05-10 19:48:00,53.7,50.0,29.85,ENE,57,0.0,2.0,87,0.00,-RA,OVC,0.02,WeatherDisplay:10.37,2013-05-10 23:48:00,
2013-05-10 19:53:00,53.4,50.3,29.84,East,79,0.0,2.0,89,0.00,-RA,OVC,0.02,WeatherDisplay:10.37,2013-05-10 23:53:00,
2013-05-10 19:58:00,53.3,50.1,29.84,ENE,58,0.0,0.0,89,0.01,-RA,OVC,0.03,WeatherDisplay:10.37,2013-05-10 23:58:00,
2013-05-10 20:03:00,53.1,49.9,29.84,NE,53,0.0,0.0,89,0.00,-RA,OVC,0.03,WeatherDisplay:10.37,2013-05-11 00:03:00,
2013-05-10 20:08:00,53.0,50.1,29.84,NE,55,0.0,0.0,90,0.00,-RA,OVC,0.03,WeatherDisplay:10.37,2013-05-11 00:08:00,
2013-05-10 20:13:00,52.8,49.9,29.84,NE,47,0.0,1.0,90,0.01,-RA,OVC,0.04,WeatherDisplay:10.37,2013-05-11 00:13:00,
2013-05-10 20:18:00,52.6,49.4,29.84,NNE,29,0.0,2.0,89,0.00,-RA,OVC,0.04,WeatherDisplay:10.37,2013-05-11 00:18:00,
2013-05-10 20:23:00,52.5,49.7,29.83,NNE,21,0.0,5.0,90,0.00,-RA,OVC,0.04,WeatherDisplay:10.37,2013-05-11 00:23:00,
2013-05-10 20:28:00,52.4,48.9,29.83,NE,37,0.0,3.0,88,0.00,-RA,OVC,0.04,WeatherDisplay:10.37,2013-05-11 00:28:00,
2013-05-10 20:33:00,52.3,48.9,29.83,NE,49,0.0,6.0,88,0.00,-RA,OVC,0.04,WeatherDisplay:10.37,2013-05-11 00:33:00,
2013-05-10 20:38:00,52.0,48.3,29.83,NE,48,0.0,2.0,87,0.00,-RA,OVC,0.04,WeatherDisplay:10.37,2013-05-11 00:38:00,
2013-05-10 20:43:00,51.8,48.1,29.83,ENE,67,0.0,4.0,87,0.01,-RA,OVC,0.05,WeatherDisplay:10.37,2013-05-11 00:43:00,
2013-05-10 20:48:00,51.4,48.0,29.83,NE,54,1.0,4.0,88,0.00,-RA,OVC,0.05,WeatherDisplay:10.37,2013-05-11 00:48:00,
2013-05-10 20:53:00,51.1,48.0,29.83,NE,39,0.0,2.0,89,0.00,-RA,OVC,0.05,WeatherDisplay:10.37,2013-05-11 00:53:00,
2013-05-10 20:58:00,51.1,47.6,29.83,East,92,0.0,3.0,88,0.00,-RA,OVC,0.05,WeatherDisplay:10.37,2013-05-11 00:58:00,
2013-05-10 21:03:00,51.0,47.6,29.83,ENE,65,0.0,4.0,88,0.00,-RA,OVC,0.05,WeatherDisplay:10.37,2013-05-11 01:03:00,
2013-05-10 21:08:00,50.9,47.8,29.84,NE,37,0.0,3.0,89,0.00,-RA,OVC,0.05,WeatherDisplay:10.37,2013-05-11 01:08:00,
2013-05-10 21:13:00,50.7,47.9,29.84,NE,38,0.0,1.0,90,0.00,-RA,OVC,0.05,WeatherDisplay:10.37,2013-05-11 01:13:00,
2013-05-10 21:18:00,50.5,47.7,29.84,NE,37,0.0,2.0,90,0.01,-RA,OVC,0.05,WeatherDisplay:10.37,2013-05-11 01:18:00,
2013-05-10 21:23:00,50.4,47.6,29.84,NE,40,0.0,2.0,90,0.00,-RA,OVC,0.05,WeatherDisplay:10.37,2013-05-11 01:23:00,
2013-05-10 21:28:00,50.4,47.6,29.83,NNE,31,0.0,5.0,90,0.00,-RA,OVC,0.05,WeatherDisplay:10.37,2013-05-11 01:28:00,
2013-05-10 21:33:00,50.3,47.2,29.83,NE,38,0.0,5.0,89,0.00,-RA,OVC,0.05,WeatherDisplay:10.37,2013-05-11 01:33:00,
2013-05-10 21:38:00,50.1,46.7,29.83,ENE,66,1.0,6.0,88,0.01,-RA,OVC,0.06,WeatherDisplay:10.37,2013-05-11 01:38:00,
2013-05-10 21:43:00,49.8,46.4,29.83,ENE,62,1.0,6.0,88,0.00,-RA,OVC,0.06,WeatherDisplay:10.37,2013-05-11 01:43:00,
2013-05-10 21:48:00,49.5,46.4,29.83,ENE,63,1.0,4.0,89,0.00,-RA,OVC,0.06,WeatherDisplay:10.37,2013-05-11 01:48:00,
2013-05-10 21:53:00,49.3,46.5,29.82,ENE,68,1.0,2.0,90,0.01,-RA,OVC,0.07,WeatherDisplay:10.37,2013-05-11 01:53:00,
2013-05-10 21:58:00,49.0,46.2,29.82,ENE,59,0.0,12.0,90,0.00,-RA,OVC,0.07,WeatherDisplay:10.37,2013-05-11 01:58:00,
2013-05-10 22:03:00,48.8,46.0,29.82,NE,54,0.0,2.0,90,0.01,-RA,OVC,0.08,WeatherDisplay:10.37,2013-05-11 02:03:00,
2013-05-10 22:08:00,48.5,45.7,29.82,ENE,57,1.0,6.0,90,0.00,-RA,OVC,0.08,WeatherDisplay:10.37,2013-05-11 02:08:00,
2013-05-10 22:13:00,48.4,45.6,29.82,ENE,64,0.0,2.0,90,0.01,-RA,OVC,0.09,WeatherDisplay:10.37,2013-05-11 02:13:00,
2013-05-10 22:18:00,48.1,45.3,29.82,ENE,58,1.0,5.0,90,0.02,-RA,OVC,0.10,WeatherDisplay:10.37,2013-05-11 02:18:00,
2013-05-10 22:23:00,47.9,45.4,29.82,North,11,1.0,7.0,91,0.01,-RA,OVC,0.11,WeatherDisplay:10.37,2013-05-11 02:23:00,
2013-05-10 22:28:00,47.7,45.2,29.81,North,350,0.0,6.0,91,0.01,-RA,OVC,0.12,WeatherDisplay:10.37,2013-05-11 02:28:00,
2013-05-10 22:38:00,47.3,45.1,29.81,NE,46,0.0,3.0,92,0.01,-RA,OVC,0.13,WeatherDisplay:10.37,2013-05-11 02:38:00,
2013-05-10 22:43:00,47.2,45.0,29.80,NE,54,0.0,3.0,92,0.00,-RA,OVC,0.13,WeatherDisplay:10.37,2013-05-11 02:43:00,
2013-05-10 22:48:00,47.2,45.3,29.80,NNE,31,0.0,3.0,93,0.00,-RA,OVC,0.13,WeatherDisplay:10.37,2013-05-11 02:48:00,
2013-05-10 22:53:00,47.2,45.0,29.80,NNE,18,0.0,6.0,92,0.01,-RA,OVC,0.14,WeatherDisplay:10.37,2013-05-11 02:53:00,
2013-05-10 22:58:00,47.2,45.3,29.80,NNE,25,1.0,6.0,93,0.00,-RA,OVC,0.14,WeatherDisplay:10.37,2013-05-11 02:58:00,
2013-05-10 23:03:00,47.3,45.3,29.80,NNE,23,0.0,6.0,93,0.00,-RA,OVC,0.14,WeatherDisplay:10.37,2013-05-11 03:03:00,
2013-05-10 23:08:00,47.3,45.4,29.80,North,10,1.0,3.0,93,0.00,-RA,OVC,0.14,WeatherDisplay:10.37,2013-05-11 03:08:00,
2013-05-10 23:13:00,47.4,45.5,29.79,NE,40,0.0,4.0,93,0.01,-RA,OVC,0.15,WeatherDisplay:10.37,2013-05-11 03:13:00,
2013-05-10 23:18:00,47.5,45.9,29.78,NE,34,0.0,2.0,94,0.00,-RA,OVC,0.15,WeatherDisplay:10.37,2013-05-11 03:18:00,
2013-05-10 23:23:00,47.6,46.0,29.78,ENE,70,1.0,7.0,94,0.02,-RA,OVC,0.17,WeatherDisplay:10.37,2013-05-11 03:23:00,
2013-05-10 23:28:00,47.7,46.0,29.78,ENE,59,0.0,2.0,94,0.02,-RA,OVC,0.18,WeatherDisplay:10.37,2013-05-11 03:28:00,
2013-05-10 23:33:00,47.8,46.1,29.78,NNE,27,0.0,3.0,94,0.02,-RA,OVC,0.20,WeatherDisplay:10.37,2013-05-11 03:33:00,
2013-05-10 23:38:00,47.8,46.2,29.77,NNE,29,0.0,4.0,94,0.01,-RA,OVC,0.20,WeatherDisplay:10.37,2013-05-11 03:38:00,
2013-05-10 23:43:00,48.0,46.4,29.77,NNE,28,0.0,2.0,94,0.01,-RA,OVC,0.21,WeatherDisplay:10.37,2013-05-11 03:43:00,
2013-05-10 23:48:00,48.1,46.5,29.77,NNE,24,0.0,2.0,94,0.00,-RA,OVC,0.21,WeatherDisplay:10.37,2013-05-11 03:48:00,
2013-05-10 23:53:00,48.2,46.6,29.76,ENE,70,1.0,8.0,94,0.01,-RA,OVC,0.22,WeatherDisplay:10.37,2013-05-11 03:53:00,
2013-05-10 23:58:00,48.4,46.8,29.76,NE,43,0.0,6.0,94,0.00,-RA,OVC,0.00,WeatherDisplay:10.37,2013-05-11 03:58:00,